EW2785 Weather Reports


time (UTC)temp
C
wind
direction
speed
KPH
gust
KPH
rain 1hr
cm
rain 24hr
cm
rain mn
cm
humidity
%
barometer
mb
20260901084520 17 217 0.0 0.0 0.00 0.00 0.00 91 1015.8
20260901083018 17 217 0.0 0.0 0.00 0.00 0.00 90 1016.1
20260901081517 17 217 0.0 0.0 0.00 0.00 0.00 90 1016.2
20260901080020 17 217 0.0 0.0 0.00 0.00 0.00 90 1016.2
20260901074517 17 217 0.0 0.0 0.00 0.00 0.00 90 1016.2
20260901073016 17 217 0.0 0.0 0.00 0.00 0.00 90 1016.2
20260901071516 17 217 0.0 0.0 0.00 0.00 0.00 90 1016.2
20260901070019 17 217 0.0 0.0 0.00 0.00 0.00 90 1016.2
20260901064519 17 217 0.0 0.0 0.00 0.00 0.00 89 1016.4
20260901063024 17 217 0.0 0.0 0.00 0.00 0.00 89 1016.5
20260901061509 17 217 0.0 0.0 0.00 0.00 0.00 89 1016.7
20260901060009 17 217 0.0 0.0 0.00 0.00 0.00 89 1016.7
20260901054506 17 217 0.0 0.0 0.00 0.00 0.00 89 1016.8
20260901053004 17 217 0.0 0.0 0.00 0.00 0.00 89 1017.1
20260901051503 17 217 0.0 0.0 0.00 0.00 0.00 88 1017.3
20260901050003 17 217 0.0 0.0 0.00 0.00 0.00 88 1017.3
20260901044502 17 217 0.0 0.0 0.00 0.00 0.00 88 1017.5
20260901043100 17 217 0.0 0.0 0.00 0.00 0.00 88 1017.4
20260901041559 17 217 0.0 0.0 0.00 0.00 0.00 88 1017.3
20260901040057 17 217 0.0 0.0 0.00 0.00 0.00 87 1017.2
20260901034557 17 217 0.0 0.0 0.00 0.00 0.00 87 1017.1
20260901033059 17 217 0.0 0.0 0.00 0.00 0.00 86 1017.0
20260901031557 17 217 0.0 0.0 0.00 0.00 0.00 86 1017.2
20260901030055 17 217 0.0 0.0 0.00 0.00 0.00 86 1017.3
20260901024555 18 217 0.0 0.0 0.00 0.00 0.00 85 1017.3
20260901023055 18 217 0.0 0.0 0.00 0.00 0.00 85 1017.3
20260901021555 18 217 0.0 1.6 0.00 0.00 0.00 85 1017.3
20260901020056 18 217 0.0 0.0 0.00 0.00 0.00 84 1017.4
20260901014554 19 217 0.0 0.0 0.00 0.00 0.00 84 1017.2
20260901013107 19 217 0.0 0.0 0.00 0.00 0.00 83 1017.1
20260901011553 19 217 0.0 1.6 0.00 0.00 0.00 82 1017.1
20260901010056 20 217 0.0 0.0 0.00 0.00 0.00 80 1017.0
20260901004551 20 217 0.0 0.0 0.00 0.00 0.00 79 1017.1
20260901003051 20 217 0.0 0.0 0.00 0.00 0.00 79 1017.1
20260901001553 21 217 0.0 0.0 0.00 0.00 0.00 78 1017.1
20260901000050 21 217 0.0 0.0 0.00 0.00 0.00 76 1017.1
20260831234556 21 217 0.0 0.0 0.00 0.00 0.00 74 1017.0
20260831233054 22 217 0.0 0.0 0.00 0.00 0.00 73 1017.0
20260831231550 22 217 0.0 0.0 0.00 0.00 0.00 70 1017.0
20260831230047 22 217 0.0 1.6 0.00 0.00 0.00 67 1017.1
20260831224545 23 217 0.0 1.6 0.00 0.00 0.00 67 1017.2
20260831223053 23 217 0.0 1.6 0.00 0.00 0.00 65 1017.3
20260831221545 23 217 0.0 0.0 0.00 0.00 0.00 62 1017.2
20260831220046 23 217 0.0 0.0 0.00 0.00 0.00 59 1017.2
20260831214557 24 217 0.0 3.2 0.00 0.00 0.00 57 1017.3
20260831213043 24 217 0.0 4.8 0.00 0.00 0.00 57 1017.2
20260831211545 23 217 0.0 4.8 0.00 0.00 0.00 55 1017.3
20260831210041 24 241 0.0 4.8 0.00 0.00 0.00 58 1017.3
20260831204542 23 226 0.0 1.6 0.00 0.00 0.00 56 1017.3
20260831203038 23 226 0.0 1.6 0.00 0.00 0.00 53 1017.5
20260831201537 24 211 0.0 3.2 0.00 0.00 0.00 60 1017.7
20260831200034 24 201 0.0 8.0 0.00 0.00 0.00 56 1018.0
20260831194532 24 197 0.0 8.0 0.00 0.00 0.00 56 1018.2
20260831193056 23 215 1.6 8.0 0.00 0.00 0.00 58 1018.2
20260831191529 24 225 0.0 8.0 0.00 0.00 0.00 58 1018.3
20260831190026 23 186 1.6 12.9 0.00 0.00 0.00 61 1018.4
20260831184521 23 197 3.2 9.7 0.00 0.00 0.00 63 1018.4
20260831183020 22 205 0.0 11.3 0.00 0.00 0.00 65 1018.5
20260831181525 22 177 1.6 9.7 0.00 0.00 0.00 63 1018.8
20260831180019 22 215 0.0 4.8 0.00 0.00 0.00 66 1018.9
20260831174517 22 215 0.0 4.8 0.00 0.00 0.00 68 1019.2
20260831173017 21 209 1.6 8.0 0.00 0.00 0.00 71 1019.3
20260831171511 21 331 0.0 8.0 0.00 0.00 0.00 72 1019.3
20260831170008 21 360 3.2 6.4 0.00 0.00 0.00 71 1019.4
20260831164507 21 319 1.6 6.4 0.00 0.00 0.00 75 1019.3
20260831163006 21 207 0.0 6.4 0.00 0.00 0.00 75 1019.6
20260831161506 21 338 0.0 6.4 0.00 0.00 0.00 75 1019.7
20260831160002 20 246 1.6 6.4 0.00 0.00 0.00 78 1019.9
20260831154501 20 336 0.0 4.8 0.00 0.00 0.00 78 1020.0
20260831153058 20 190 0.0 11.3 0.00 0.00 0.00 80 1020.2
20260831151556 20 34 0.0 4.8 0.00 0.00 0.00 81 1020.0
20260831144557 18 162 0.0 3.2 0.00 0.00 0.00 85 1019.8
20260831143047 18 219 3.2 6.4 0.00 0.00 0.00 87 1020.1
20260831141549 17 19 0.0 4.8 0.00 0.00 0.00 88 1020.1
20260831140044 17 209 0.0 3.2 0.00 0.00 0.00 89 1020.3
20260831134544 17 360 0.0 3.2 0.00 0.00 0.00 91 1020.1
20260831133041 16 5 0.0 3.2 0.00 0.00 0.00 92 1020.2
20260831131554 16 348 0.0 4.8 0.00 0.00 0.00 92 1020.2
20260831130045 16 350 0.0 3.2 0.00 0.00 0.00 93 1020.4
20260831124541 16 350 1.6 6.4 0.00 0.00 0.00 93 1020.5
20260831123043 16 334 0.0 3.2 0.00 0.00 0.00 93 1020.6
20260831121537 15 201 0.0 0.0 0.00 0.00 0.00 93 1020.6
20260831120036 15 201 0.0 0.0 0.00 0.00 0.00 93 1020.5
20260831114536 15 201 0.0 0.0 0.00 0.00 0.00 93 1020.6
20260831113041 15 201 0.0 1.6 0.00 0.00 0.00 93 1020.4
20260831111540 15 201 0.0 0.0 0.00 0.00 0.00 93 1020.1
20260831110033 15 201 0.0 0.0 0.00 0.00 0.00 93 1020.0
20260831104533 15 201 0.0 0.0 0.00 0.00 0.00 92 1019.7
20260831103027 15 201 0.0 0.0 0.00 0.00 0.00 92 1019.6
20260831101527 15 201 0.0 0.0 0.00 0.00 0.00 92 1019.7
20260831100034 15 201 0.0 0.0 0.00 0.00 0.00 92 1019.6
20260831094533 15 201 0.0 0.0 0.00 0.00 0.00 92 1019.5
20260831093042 15 201 0.0 0.0 0.00 0.00 0.00 91 1019.4
20260831091523 15 201 0.0 0.0 0.00 0.00 0.00 91 1019.4
20260831090020 15 201 0.0 0.0 0.00 0.00 0.00 91 1019.2